TimeCST,TemperatureF,Dew PointF,Humidity,Sea Level PressureIn,VisibilityMPH,Wind Direction,Wind SpeedMPH,Gust SpeedMPH,PrecipitationIn,Events,Conditions,WindDirDegrees,DateUTC
12:15 AM,23.0,23.0,100,29.82,0.2,ESE,5.8,-,N/A,Fog,Light Freezing Fog,120,2012-12-02 06:15:00
12:35 AM,23.0,23.0,100,29.81,0.2,SSE,6.9,-,N/A,Fog,Light Freezing Fog,150,2012-12-02 06:35:00
12:55 AM,23.0,23.0,100,29.82,0.2,SSE,6.9,-,N/A,Fog,Light Freezing Fog,160,2012-12-02 06:55:00
1:15 AM,23.0,23.0,100,29.80,0.2,SSE,8.1,-,N/A,Fog,Light Freezing Fog,150,2012-12-02 07:15:00
1:35 AM,23.0,23.0,100,29.80,0.2,South,6.9,-,N/A,Fog,Light Freezing Fog,170,2012-12-02 07:35:00
1:55 AM,23.0,23.0,100,29.79,0.5,SSE,8.1,-,N/A,Fog,Light Freezing Fog,160,2012-12-02 07:55:00
2:15 AM,23.0,23.0,100,29.79,0.5,SSE,6.9,-,N/A,Fog,Light Freezing Fog,160,2012-12-02 08:15:00
2:35 AM,23.0,23.0,100,29.78,0.2,SE,8.1,-,N/A,Fog,Light Freezing Fog,140,2012-12-02 08:35:00
2:55 AM,23.0,23.0,100,29.79,0.2,SSE,10.4,-,N/A,Fog,Light Freezing Fog,150,2012-12-02 08:55:00
3:15 AM,23.0,23.0,100,29.78,0.2,SSE,6.9,-,N/A,Fog,Light Freezing Fog,150,2012-12-02 09:15:00
3:35 AM,24.8,24.8,100,29.77,0.2,SSE,8.1,-,N/A,Fog,Light Freezing Fog,150,2012-12-02 09:35:00
3:55 AM,24.8,24.8,100,29.77,0.2,SSE,8.1,-,N/A,Fog,Light Freezing Fog,160,2012-12-02 09:55:00
4:15 AM,24.8,24.8,100,29.75,0.2,SSE,6.9,-,N/A,Fog,Light Freezing Fog,160,2012-12-02 10:15:00
4:35 AM,24.8,24.8,100,29.74,0.2,South,13.8,17.3,N/A,Fog,Light Freezing Fog,170,2012-12-02 10:35:00
4:55 AM,26.6,26.6,100,29.74,0.2,South,8.1,-,N/A,Fog,Light Freezing Fog,170,2012-12-02 10:55:00
5:15 AM,26.6,26.6,100,29.74,0.2,North,-9999.0,-,N/A,Fog,Light Freezing Fog,0,2012-12-02 11:15:00
5:35 AM,28.4,28.4,100,29.73,1.8,South,9.2,26.5,N/A,,Overcast,170,2012-12-02 11:35:00
6:15 AM,28.4,28.4,100,29.72,0.2,South,16.1,20.7,N/A,Fog,Light Freezing Fog,180,2012-12-02 12:15:00
6:35 AM,28.4,28.4,100,29.71,0.2,South,17.3,20.7,N/A,Fog,Light Freezing Fog,180,2012-12-02 12:35:00
6:55 AM,28.4,28.4,100,29.69,0.2,South,17.3,-,N/A,Fog,Light Freezing Fog,180,2012-12-02 12:55:00
7:15 AM,28.4,28.4,100,29.70,0.2,South,13.8,-,N/A,Fog,Light Freezing Fog,190,2012-12-02 13:15:00
7:35 AM,28.4,28.4,100,29.69,0.2,South,15.0,19.6,N/A,Fog,Light Freezing Fog,190,2012-12-02 13:35:00
7:55 AM,28.4,28.4,100,29.70,0.2,South,15.0,-,N/A,Fog,Light Freezing Fog,190,2012-12-02 13:55:00
8:15 AM,28.4,28.4,100,29.68,0.2,South,17.3,-,N/A,Fog,Light Freezing Fog,190,2012-12-02 14:15:00
8:35 AM,30.2,30.2,100,29.67,0.2,South,16.1,-,N/A,Fog,Light Freezing Fog,190,2012-12-02 14:35:00
8:55 AM,30.2,30.2,100,29.67,0.2,SSW,18.4,24.2,N/A,Fog,Light Freezing Fog,200,2012-12-02 14:55:00
9:15 AM,32.0,32.0,100,29.67,0.2,SSW,17.3,-,N/A,Fog,Light Freezing Fog,210,2012-12-02 15:15:00
9:35 AM,32.0,32.0,100,29.67,0.2,SSW,16.1,20.7,N/A,Fog,Light Freezing Fog,200,2012-12-02 15:35:00
9:55 AM,32.0,32.0,100,29.66,0.2,SSW,18.4,21.9,N/A,Fog,Light Freezing Fog,210,2012-12-02 15:55:00
10:15 AM,32.0,32.0,100,29.66,0.2,SSW,11.5,-,N/A,Fog,Light Freezing Fog,210,2012-12-02 16:15:00
10:35 AM,32.0,32.0,100,29.66,0.2,SSW,13.8,-,N/A,Fog,Light Freezing Fog,210,2012-12-02 16:35:00
10:55 AM,32.0,32.0,100,29.65,0.2,SSW,11.5,-,N/A,Fog,Light Freezing Fog,200,2012-12-02 16:55:00
11:15 AM,32.0,32.0,100,29.65,0.2,SSW,16.1,-,N/A,Fog,Light Freezing Fog,200,2012-12-02 17:15:00
11:35 AM,32.0,32.0,100,29.64,0.2,SSW,13.8,-,N/A,Fog,Light Freezing Fog,210,2012-12-02 17:35:00
11:55 AM,32.0,32.0,100,29.63,0.2,SSW,13.8,-,N/A,Fog,Light Freezing Fog,210,2012-12-02 17:55:00
12:15 PM,32.0,32.0,100,29.62,0.2,SSW,11.5,-,N/A,Fog,Light Freezing Fog,210,2012-12-02 18:15:00
12:35 PM,32.0,32.0,100,29.61,0.5,SSW,13.8,-,N/A,Fog,Light Freezing Fog,200,2012-12-02 18:35:00
12:55 PM,32.0,32.0,100,29.60,1.0,SSW,8.1,-,N/A,,Overcast,210,2012-12-02 18:55:00
1:15 PM,32.0,32.0,100,29.60,8.0,SW,6.9,-,N/A,,Scattered Clouds,220,2012-12-02 19:15:00
1:35 PM,32.0,32.0,100,29.58,9.0,South,10.4,-,N/A,,Clear,190,2012-12-02 19:35:00
1:55 PM,32.0,32.0,100,29.57,10.0,South,9.2,-,N/A,Rain,Light Rain,190,2012-12-02 19:55:00
2:15 PM,32.0,32.0,100,29.56,10.0,South,9.2,-,N/A,Rain,Light Rain,190,2012-12-02 20:15:00
2:35 PM,32.0,32.0,100,29.55,10.0,SSE,9.2,-,N/A,,Clear,160,2012-12-02 20:35:00
3:15 PM,32.0,32.0,100,29.53,8.0,SSE,9.2,-,N/A,,Partly Cloudy,160,2012-12-02 21:15:00
3:35 PM,32.0,32.0,100,29.52,5.0,SSE,6.9,-,N/A,Rain,Light Rain,160,2012-12-02 21:35:00
3:55 PM,32.0,32.0,100,29.51,3.0,SSE,6.9,-,N/A,,Mostly Cloudy,150,2012-12-02 21:55:00
4:15 PM,32.0,32.0,100,29.51,3.0,SSE,8.1,-,N/A,Rain,Light Rain,150,2012-12-02 22:15:00
4:35 PM,32.0,32.0,100,29.50,2.5,SSE,8.1,-,N/A,,Overcast,150,2012-12-02 22:35:00
4:55 PM,32.0,32.0,100,29.49,2.5,SE,5.8,-,N/A,,Overcast,140,2012-12-02 22:55:00
5:15 PM,32.0,32.0,100,29.49,2.0,SE,5.8,-,N/A,,Overcast,130,2012-12-02 23:15:00
5:35 PM,32.0,32.0,100,29.48,1.5,SE,3.5,-,N/A,,Overcast,130,2012-12-02 23:35:00
5:55 PM,32.0,32.0,100,29.47,2.0,SE,4.6,-,N/A,,Overcast,130,2012-12-02 23:55:00
6:15 PM,32.0,32.0,100,29.45,2.0,East,3.5,-,N/A,,Overcast,90,2012-12-03 00:15:00
6:35 PM,32.0,32.0,100,29.46,2.0,SSE,3.5,-,N/A,,Overcast,160,2012-12-03 00:35:00
6:55 PM,32.0,32.0,100,29.46,2.0,SSE,3.5,-,N/A,,Overcast,160,2012-12-03 00:55:00
7:15 PM,32.0,32.0,100,29.45,2.0,SE,4.6,-,N/A,,Scattered Clouds,140,2012-12-03 01:15:00
7:35 PM,32.0,32.0,100,29.43,3.0,SE,5.8,-,N/A,,Clear,140,2012-12-03 01:35:00
7:55 PM,32.0,32.0,100,29.42,3.0,SE,4.6,-,N/A,,Clear,130,2012-12-03 01:55:00
8:15 PM,32.0,32.0,100,29.41,3.0,SE,6.9,-,N/A,,Scattered Clouds,140,2012-12-03 02:15:00
8:35 PM,30.2,30.2,100,29.40,1.8,Calm,Calm,-,N/A,,Overcast,0,2012-12-03 02:35:00
8:55 PM,30.2,30.2,100,29.38,0.5,Calm,Calm,-,N/A,Fog,Light Freezing Fog,0,2012-12-03 02:55:00
9:15 PM,30.2,30.2,100,29.35,0.2,SE,8.1,-,N/A,Fog,Light Freezing Fog,130,2012-12-03 03:15:00
9:35 PM,32.0,32.0,100,29.35,2.5,SE,4.6,-,N/A,,Scattered Clouds,140,2012-12-03 03:35:00
9:55 PM,32.0,32.0,100,29.34,3.0,South,4.6,-,N/A,,Clear,170,2012-12-03 03:55:00
10:15 PM,32.0,32.0,100,29.33,3.0,SSE,5.8,-,N/A,,Clear,160,2012-12-03 04:15:00
10:35 PM,30.2,30.2,100,29.34,4.0,SSW,4.6,-,N/A,,Clear,200,2012-12-03 04:35:00
10:55 PM,30.2,30.2,100,29.33,4.0,SSW,5.8,-,N/A,,Clear,200,2012-12-03 04:55:00
11:15 PM,30.2,30.2,100,29.32,5.0,South,5.8,-,N/A,,Clear,180,2012-12-03 05:15:00
11:35 PM,30.2,30.2,100,29.31,4.0,Calm,Calm,-,N/A,,Clear,0,2012-12-03 05:35:00
11:55 PM,30.2,30.2,100,29.30,4.0,Calm,Calm,-,N/A,,Clear,0,2012-12-03 05:55:00